Time,TemperatureF,DewpointF,PressureIn,WindDirection,WindDirectionDegrees,WindSpeedMPH,WindSpeedGustMPH,Humidity,HourlyPrecipIn,Conditions,Clouds,dailyrainin,SoftwareType,DateUTC
2013-02-07 00:00:00,65.3,61.7,30.07,ENE,65,0.0,25.0,88,0.00,,---,0.00,VWS V12.08,2013-02-07 05:00:00,
2013-02-07 00:01:00,65.3,61.7,30.07,ENE,65,0.0,25.0,88,0.00,,---,0.00,VWS V12.08,2013-02-07 05:01:00,
2013-02-07 00:02:00,65.2,61.6,30.07,ENE,65,0.0,25.0,88,0.00,,---,0.00,VWS V12.08,2013-02-07 05:02:00,
2013-02-07 00:07:00,65.2,61.6,30.07,ENE,65,0.0,25.0,88,0.00,,---,0.00,VWS V12.08,2013-02-07 05:07:00,
2013-02-07 00:12:00,65.1,61.5,30.07,ENE,65,0.0,25.0,88,0.00,,---,0.00,VWS V12.08,2013-02-07 05:12:00,
2013-02-07 00:17:00,64.7,60.8,30.07,ENE,65,0.0,25.0,87,0.00,,---,0.00,VWS V12.08,2013-02-07 05:17:00,
2013-02-07 00:22:00,64.3,60.7,30.07,ENE,65,0.0,25.0,88,0.00,,---,0.00,VWS V12.08,2013-02-07 05:22:00,
2013-02-07 00:27:00,63.6,60.0,30.07,ENE,65,0.0,25.0,88,0.00,,---,0.00,VWS V12.08,2013-02-07 05:27:00,
2013-02-07 00:32:00,63.3,60.0,30.06,ENE,65,0.0,25.0,89,0.00,,---,0.00,VWS V12.08,2013-02-07 05:32:00,
2013-02-07 00:37:00,62.9,59.6,30.06,ENE,65,0.0,25.0,89,0.00,,---,0.00,VWS V12.08,2013-02-07 05:37:00,
2013-02-07 00:42:00,62.8,59.5,30.06,ENE,65,0.0,25.0,89,0.00,,---,0.00,VWS V12.08,2013-02-07 05:42:00,
2013-02-07 00:47:00,62.7,59.7,30.06,ENE,65,0.0,25.0,90,0.00,,---,0.00,VWS V12.08,2013-02-07 05:47:00,
2013-02-07 00:52:00,62.7,59.7,30.06,ENE,65,0.0,25.0,90,0.00,,---,0.00,VWS V12.08,2013-02-07 05:52:00,
2013-02-07 00:57:00,62.7,59.7,30.07,ENE,65,0.0,25.0,90,0.00,,---,0.00,VWS V12.08,2013-02-07 05:57:00,
2013-02-07 01:02:00,62.5,59.5,30.06,ENE,65,0.0,25.0,90,0.00,,---,0.00,VWS V12.08,2013-02-07 06:02:00,
2013-02-07 01:07:00,62.3,59.3,30.07,ENE,65,0.0,25.0,90,0.00,,---,0.00,VWS V12.08,2013-02-07 06:07:00,
2013-02-07 01:12:00,62.2,59.5,30.06,ENE,65,0.0,25.0,91,0.00,,---,0.00,VWS V12.08,2013-02-07 06:12:00,
2013-02-07 01:17:00,62.1,59.5,30.06,ENE,65,0.0,25.0,91,0.00,,---,0.00,VWS V12.08,2013-02-07 06:17:00,
2013-02-07 01:22:00,61.9,59.2,30.06,ENE,65,0.0,25.0,91,0.00,,---,0.00,VWS V12.08,2013-02-07 06:22:00,
2013-02-07 01:27:00,61.8,59.2,30.06,ENE,65,0.0,25.0,91,0.00,,---,0.00,VWS V12.08,2013-02-07 06:27:00,
2013-02-07 01:32:00,61.7,59.0,30.06,ENE,65,0.0,25.0,91,0.00,,---,0.00,VWS V12.08,2013-02-07 06:32:00,
2013-02-07 01:37:00,61.5,59.2,30.06,ENE,65,0.0,25.0,92,0.00,,---,0.00,VWS V12.08,2013-02-07 06:37:00,
2013-02-07 01:42:00,61.3,58.7,30.06,ENE,65,0.0,25.0,91,0.00,,---,0.00,VWS V12.08,2013-02-07 06:42:00,
2013-02-07 01:47:00,61.0,58.7,30.06,ENE,65,0.0,25.0,92,0.00,,---,0.00,VWS V12.08,2013-02-07 06:47:00,
2013-02-07 01:52:00,60.5,57.9,30.06,ENE,65,0.0,25.0,91,0.00,,---,0.00,VWS V12.08,2013-02-07 06:52:00,
2013-02-07 01:57:00,59.9,57.3,30.06,ENE,65,0.0,25.0,91,0.00,,---,0.00,VWS V12.08,2013-02-07 06:57:00,
2013-02-07 02:02:00,59.5,56.9,30.06,ENE,65,0.0,25.0,91,0.00,,---,0.00,VWS V12.08,2013-02-07 07:02:00,
2013-02-07 02:07:00,59.5,57.2,30.06,ENE,65,0.0,25.0,92,0.00,,---,0.00,VWS V12.08,2013-02-07 07:07:00,
2013-02-07 02:12:00,59.1,56.5,30.06,ENE,65,0.0,25.0,91,0.00,,---,0.00,VWS V12.08,2013-02-07 07:12:00,
2013-02-07 02:17:00,58.9,56.6,30.06,ENE,65,0.0,25.0,92,0.00,,---,0.00,VWS V12.08,2013-02-07 07:17:00,
2013-02-07 02:22:00,58.8,56.5,30.06,ENE,65,0.0,25.0,92,0.00,,---,0.00,VWS V12.08,2013-02-07 07:22:00,
2013-02-07 02:27:00,58.5,56.2,30.05,ENE,65,0.0,25.0,92,0.00,,---,0.00,VWS V12.08,2013-02-07 07:27:00,
2013-02-07 02:32:00,58.1,55.5,30.05,ENE,65,0.0,25.0,91,0.00,,---,0.00,VWS V12.08,2013-02-07 07:32:00,
2013-02-07 02:37:00,57.8,55.5,30.05,ENE,65,0.0,25.0,92,0.00,,---,0.00,VWS V12.08,2013-02-07 07:37:00,
2013-02-07 02:42:00,57.7,55.4,30.05,ENE,65,0.0,25.0,92,0.00,,---,0.00,VWS V12.08,2013-02-07 07:42:00,
2013-02-07 02:47:00,57.8,55.8,30.04,ENE,65,0.0,25.0,93,0.00,,---,0.00,VWS V12.08,2013-02-07 07:47:00,
2013-02-07 02:52:00,58.0,56.0,30.04,ENE,65,0.0,25.0,93,0.00,,---,0.00,VWS V12.08,2013-02-07 07:52:00,
2013-02-07 02:57:00,57.8,55.8,30.04,ENE,65,0.0,25.0,93,0.00,,---,0.00,VWS V12.08,2013-02-07 07:57:00,
2013-02-07 03:02:00,57.8,55.8,30.04,ENE,65,0.0,25.0,93,0.00,,---,0.00,VWS V12.08,2013-02-07 08:02:00,
2013-02-07 03:07:00,58.3,56.6,30.04,ENE,65,0.0,25.0,94,0.00,,---,0.00,VWS V12.08,2013-02-07 08:07:00,
2013-02-07 03:12:00,58.1,56.1,30.04,ENE,65,0.0,25.0,93,0.00,,---,0.00,VWS V12.08,2013-02-07 08:12:00,
2013-02-07 03:17:00,57.9,56.2,30.04,ENE,65,0.0,25.0,94,0.00,,---,0.00,VWS V12.08,2013-02-07 08:17:00,
2013-02-07 03:22:00,57.9,55.9,30.04,ENE,65,0.0,25.0,93,0.00,,---,0.00,VWS V12.08,2013-02-07 08:22:00,
2013-02-07 03:27:00,57.9,55.9,30.04,ENE,65,0.0,25.0,93,0.00,,---,0.00,VWS V12.08,2013-02-07 08:27:00,
2013-02-07 03:32:00,57.9,55.9,30.04,ENE,65,0.0,25.0,93,0.00,,---,0.00,VWS V12.08,2013-02-07 08:32:00,
2013-02-07 03:37:00,57.9,56.2,30.04,ENE,65,0.0,25.0,94,0.00,,---,0.00,VWS V12.08,2013-02-07 08:37:00,
2013-02-07 03:42:00,58.0,56.3,30.03,ENE,65,0.0,25.0,94,0.00,,---,0.00,VWS V12.08,2013-02-07 08:42:00,
2013-02-07 03:47:00,58.1,56.4,30.03,ENE,65,0.0,25.0,94,0.00,,---,0.00,VWS V12.08,2013-02-07 08:47:00,
2013-02-07 03:52:00,58.1,56.4,30.03,ENE,65,0.0,25.0,94,0.00,,---,0.00,VWS V12.08,2013-02-07 08:52:00,
2013-02-07 03:57:00,58.0,56.3,30.03,ENE,65,0.0,25.0,94,0.00,,---,0.00,VWS V12.08,2013-02-07 08:57:00,
2013-02-07 04:02:00,57.9,56.2,30.03,ENE,65,0.0,25.0,94,0.00,,---,0.00,VWS V12.08,2013-02-07 09:02:00,
2013-02-07 04:07:00,57.9,56.2,30.03,ENE,65,0.0,25.0,94,0.00,,---,0.00,VWS V12.08,2013-02-07 09:07:00,
2013-02-07 04:12:00,57.9,56.2,30.03,ENE,65,0.0,25.0,94,0.00,,---,0.00,VWS V12.08,2013-02-07 09:12:00,
2013-02-07 04:17:00,58.0,56.3,30.03,ENE,65,0.0,25.0,94,0.00,,---,0.00,VWS V12.08,2013-02-07 09:17:00,
2013-02-07 04:22:00,58.0,56.3,30.03,ENE,65,0.0,25.0,94,0.00,,---,0.00,VWS V12.08,2013-02-07 09:22:00,
2013-02-07 04:27:00,58.0,56.3,30.03,ENE,65,0.0,25.0,94,0.00,,---,0.00,VWS V12.08,2013-02-07 09:27:00,
2013-02-07 04:32:00,57.8,56.1,30.03,ENE,65,0.0,25.0,94,0.00,,---,0.00,VWS V12.08,2013-02-07 09:32:00,
2013-02-07 04:37:00,57.8,56.1,30.03,ENE,65,0.0,25.0,94,0.00,,---,0.00,VWS V12.08,2013-02-07 09:37:00,
2013-02-07 04:42:00,57.6,55.6,30.03,ENE,65,0.0,25.0,93,0.00,,---,0.00,VWS V12.08,2013-02-07 09:42:00,
2013-02-07 04:47:00,57.4,55.7,30.04,ENE,65,0.0,25.0,94,0.00,,---,0.00,VWS V12.08,2013-02-07 09:47:00,
2013-02-07 04:52:00,57.4,55.7,30.03,ENE,65,0.0,25.0,94,0.00,,---,0.00,VWS V12.08,2013-02-07 09:52:00,
2013-02-07 04:57:00,57.4,55.7,30.03,ENE,65,0.0,25.0,94,0.00,,---,0.00,VWS V12.08,2013-02-07 09:57:00,
2013-02-07 05:02:00,57.4,55.7,30.04,ENE,65,0.0,25.0,94,0.00,,---,0.00,VWS V12.08,2013-02-07 10:02:00,
2013-02-07 05:07:00,57.5,55.8,30.04,ENE,65,0.0,25.0,94,0.00,,---,0.00,VWS V12.08,2013-02-07 10:07:00,
2013-02-07 05:12:00,57.6,55.9,30.04,ENE,65,0.0,25.0,94,0.00,,---,0.00,VWS V12.08,2013-02-07 10:12:00,
2013-02-07 05:17:00,57.5,55.8,30.04,ENE,65,0.0,25.0,94,0.00,,---,0.00,VWS V12.08,2013-02-07 10:17:00,
2013-02-07 05:22:00,57.5,55.8,30.04,ENE,65,0.0,25.0,94,0.00,,---,0.00,VWS V12.08,2013-02-07 10:22:00,
2013-02-07 05:27:00,57.4,55.7,30.04,ENE,65,0.0,25.0,94,0.00,,---,0.00,VWS V12.08,2013-02-07 10:27:00,
2013-02-07 05:32:00,57.3,55.6,30.04,ENE,65,0.0,25.0,94,0.00,,---,0.00,VWS V12.08,2013-02-07 10:32:00,
2013-02-07 05:37:00,57.2,55.5,30.04,ENE,65,0.0,25.0,94,0.00,,---,0.00,VWS V12.08,2013-02-07 10:37:00,
2013-02-07 05:42:00,57.2,55.5,30.05,ENE,65,0.0,25.0,94,0.00,,---,0.00,VWS V12.08,2013-02-07 10:42:00,
2013-02-07 05:47:00,57.2,55.5,30.04,ENE,65,0.0,25.0,94,0.00,,---,0.00,VWS V12.08,2013-02-07 10:47:00,
2013-02-07 05:52:00,57.2,55.5,30.05,ENE,65,0.0,25.0,94,0.00,,---,0.00,VWS V12.08,2013-02-07 10:52:00,
2013-02-07 05:57:00,57.3,55.6,30.04,ENE,65,0.0,25.0,94,0.00,,---,0.00,VWS V12.08,2013-02-07 10:57:00,
2013-02-07 06:02:00,57.5,56.1,30.04,ENE,65,0.0,25.0,95,0.00,,---,0.00,VWS V12.08,2013-02-07 11:02:00,
2013-02-07 06:07:00,57.5,55.8,30.04,ENE,65,0.0,25.0,94,0.00,,---,0.00,VWS V12.08,2013-02-07 11:07:00,
2013-02-07 06:12:00,57.6,56.2,30.04,ENE,65,0.0,25.0,95,0.00,,---,0.00,VWS V12.08,2013-02-07 11:12:00,
2013-02-07 06:17:00,57.7,56.3,30.04,ENE,65,0.0,25.0,95,0.00,,---,0.00,VWS V12.08,2013-02-07 11:17:00,
2013-02-07 06:22:00,57.3,55.6,30.04,ENE,65,0.0,25.0,94,0.00,,---,0.00,VWS V12.08,2013-02-07 11:22:00,
2013-02-07 06:27:00,56.9,55.2,30.05,ENE,65,0.0,25.0,94,0.00,,---,0.00,VWS V12.08,2013-02-07 11:27:00,
2013-02-07 06:32:00,56.6,54.9,30.05,ENE,65,0.0,25.0,94,0.00,,---,0.00,VWS V12.08,2013-02-07 11:32:00,
2013-02-07 06:37:00,56.3,54.3,30.05,ENE,65,0.0,25.0,93,0.00,,---,0.00,VWS V12.08,2013-02-07 11:37:00,
2013-02-07 06:42:00,56.1,54.4,30.05,ENE,65,0.0,25.0,94,0.00,,---,0.00,VWS V12.08,2013-02-07 11:42:00,
2013-02-07 06:47:00,56.2,54.5,30.05,ENE,65,0.0,25.0,94,0.00,,---,0.00,VWS V12.08,2013-02-07 11:47:00,
2013-02-07 06:52:00,56.2,54.5,30.05,ENE,65,0.0,25.0,94,0.00,,---,0.00,VWS V12.08,2013-02-07 11:52:00,
2013-02-07 06:57:00,55.9,54.2,30.05,ENE,65,0.0,25.0,94,0.00,,---,0.00,VWS V12.08,2013-02-07 11:57:00,
2013-02-07 07:02:00,55.9,54.2,30.04,ENE,65,0.0,25.0,94,0.00,,---,0.00,VWS V12.08,2013-02-07 12:02:00,
2013-02-07 07:07:00,56.0,54.3,30.04,ENE,65,0.0,25.0,94,0.00,,---,0.00,VWS V12.08,2013-02-07 12:07:00,
2013-02-07 07:12:00,56.0,54.3,30.04,ENE,65,0.0,25.0,94,0.00,,---,0.00,VWS V12.08,2013-02-07 12:12:00,
2013-02-07 07:17:00,55.9,54.2,30.04,ENE,65,0.0,25.0,94,0.00,,---,0.00,VWS V12.08,2013-02-07 12:17:00,
2013-02-07 07:22:00,55.7,54.0,30.04,ENE,65,0.0,25.0,94,0.00,,---,0.00,VWS V12.08,2013-02-07 12:22:00,
2013-02-07 07:27:00,55.4,53.7,30.05,ENE,65,0.0,25.0,94,0.00,,---,0.00,VWS V12.08,2013-02-07 12:27:00,
2013-02-07 07:32:00,55.1,53.4,30.05,ENE,65,0.0,25.0,94,0.00,,---,0.00,VWS V12.08,2013-02-07 12:32:00,
2013-02-07 07:37:00,55.0,53.3,30.05,ENE,65,0.0,25.0,94,0.00,,---,0.00,VWS V12.08,2013-02-07 12:37:00,
2013-02-07 07:42:00,55.0,53.6,30.05,ENE,65,0.0,25.0,95,0.00,,---,0.00,VWS V12.08,2013-02-07 12:42:00,
2013-02-07 07:47:00,55.2,53.8,30.05,ENE,65,0.0,25.0,95,0.00,,---,0.00,VWS V12.08,2013-02-07 12:47:00,
2013-02-07 07:52:00,55.6,54.2,30.05,ENE,65,0.0,25.0,95,0.00,,---,0.00,VWS V12.08,2013-02-07 12:52:00,
2013-02-07 07:57:00,56.2,55.1,30.05,ENE,65,0.0,25.0,96,0.00,,---,0.00,VWS V12.08,2013-02-07 12:57:00,
2013-02-07 08:02:00,56.8,55.7,30.05,ENE,60,0.0,25.0,96,0.00,,---,0.00,VWS V12.08,2013-02-07 13:02:00,
2013-02-07 08:07:00,57.3,56.2,30.05,ENE,60,0.0,25.0,96,0.00,,---,0.00,VWS V12.08,2013-02-07 13:07:00,
2013-02-07 08:12:00,58.2,57.1,30.05,ENE,60,0.0,25.0,96,0.00,,---,0.00,VWS V12.08,2013-02-07 13:12:00,
2013-02-07 08:17:00,59.2,58.3,30.05,ENE,60,0.0,25.0,97,0.00,,---,0.00,VWS V12.08,2013-02-07 13:17:00,
2013-02-07 08:22:00,60.0,59.2,30.05,ENE,60,0.0,25.0,97,0.00,,---,0.00,VWS V12.08,2013-02-07 13:22:00,
2013-02-07 08:27:00,60.4,59.3,30.05,ENE,60,0.0,25.0,96,0.00,,---,0.00,VWS V12.08,2013-02-07 13:27:00,
2013-02-07 08:32:00,60.8,59.7,30.05,ENE,60,0.0,25.0,96,0.00,,---,0.00,VWS V12.08,2013-02-07 13:32:00,
2013-02-07 08:37:00,61.4,60.2,30.05,ENE,60,0.0,25.0,96,0.00,,---,0.00,VWS V12.08,2013-02-07 13:37:00,
2013-02-07 08:43:00,62.2,61.3,30.05,ENE,60,0.0,25.0,97,0.00,,---,0.00,VWS V12.08,2013-02-07 13:43:00,
2013-02-07 08:48:00,63.1,62.2,30.05,ENE,60,2.0,25.0,97,0.00,,---,0.00,VWS V12.08,2013-02-07 13:48:00,
2013-02-07 08:53:00,63.9,63.0,30.04,East,92,2.0,25.0,97,0.00,,---,0.00,VWS V12.08,2013-02-07 13:53:00,
2013-02-07 08:58:00,64.3,62.8,30.04,South,169,0.0,25.0,95,0.00,,---,0.00,VWS V12.08,2013-02-07 13:58:00,
2013-02-07 09:03:00,64.9,63.1,30.04,SSW,200,0.0,25.0,94,0.00,,---,0.00,VWS V12.08,2013-02-07 14:03:00,
2013-02-07 09:08:00,65.9,63.8,30.04,South,186,4.0,25.0,93,0.00,,---,0.00,VWS V12.08,2013-02-07 14:08:00,
2013-02-07 09:13:00,67.1,64.4,30.04,South,182,1.0,25.0,91,0.00,,---,0.00,VWS V12.08,2013-02-07 14:13:00,
2013-02-07 09:18:00,68.1,64.7,30.04,SE,145,5.0,25.0,89,0.00,,---,0.00,VWS V12.08,2013-02-07 14:18:00,
2013-02-07 09:23:00,68.8,64.8,30.04,SSE,148,1.0,25.0,87,0.00,,---,0.00,VWS V12.08,2013-02-07 14:23:00,
2013-02-07 09:28:00,69.5,65.5,30.04,SE,146,5.0,25.0,87,0.00,,---,0.00,VWS V12.08,2013-02-07 14:28:00,
2013-02-07 09:33:00,69.8,64.8,30.03,South,171,4.0,25.0,84,0.00,,---,0.00,VWS V12.08,2013-02-07 14:33:00,
2013-02-07 09:38:00,70.1,65.1,30.02,SSE,150,4.0,25.0,84,0.00,,---,0.00,VWS V12.08,2013-02-07 14:38:00,
2013-02-07 09:43:00,70.4,65.0,30.02,SSE,162,6.0,25.0,83,0.00,,---,0.00,VWS V12.08,2013-02-07 14:43:00,
2013-02-07 09:48:00,70.7,64.9,30.02,SSW,193,5.0,25.0,82,0.00,,---,0.00,VWS V12.08,2013-02-07 14:48:00,
2013-02-07 09:53:00,71.2,65.1,30.03,SSW,209,6.0,25.0,81,0.00,,---,0.00,VWS V12.08,2013-02-07 14:53:00,
2013-02-07 09:58:00,71.6,64.8,30.02,South,186,13.0,25.0,79,0.00,,---,0.00,VWS V12.08,2013-02-07 14:58:00,
2013-02-07 10:03:00,71.8,64.9,30.04,South,186,6.0,25.0,79,0.00,,---,0.00,VWS V12.08,2013-02-07 15:03:00,
2013-02-07 10:08:00,72.0,64.8,30.04,South,180,6.0,25.0,78,0.00,,---,0.00,VWS V12.08,2013-02-07 15:08:00,
2013-02-07 10:13:00,72.3,64.7,30.04,SSW,192,5.0,25.0,77,0.00,,---,0.00,VWS V12.08,2013-02-07 15:13:00,
2013-02-07 10:18:00,72.9,64.9,30.04,South,186,9.0,25.0,76,0.00,,---,0.00,VWS V12.08,2013-02-07 15:18:00,
2013-02-07 10:23:00,73.5,65.5,30.04,South,173,9.0,25.0,76,0.00,,---,0.00,VWS V12.08,2013-02-07 15:23:00,
2013-02-07 10:28:00,74.4,66.0,30.04,SSE,168,6.0,25.0,75,0.00,,---,0.00,VWS V12.08,2013-02-07 15:28:00,
2013-02-07 10:33:00,75.1,65.1,30.04,SSE,165,7.0,25.0,71,0.00,,---,0.00,VWS V12.08,2013-02-07 15:33:00,
2013-02-07 10:38:00,74.9,65.3,30.03,SSW,203,12.0,25.0,72,0.00,,---,0.00,VWS V12.08,2013-02-07 15:38:00,
2013-02-07 10:43:00,75.3,65.3,30.02,South,191,13.0,25.0,71,0.00,,---,0.00,VWS V12.08,2013-02-07 15:43:00,
2013-02-07 10:48:00,76.4,65.5,30.02,South,186,5.0,25.0,69,0.00,,---,0.00,VWS V12.08,2013-02-07 15:48:00,
2013-02-07 10:53:00,76.9,65.5,30.01,SSE,158,11.0,25.0,68,0.00,,---,0.00,VWS V12.08,2013-02-07 15:53:00,
2013-02-07 10:58:00,76.5,64.7,30.01,South,172,11.0,25.0,67,0.00,,---,0.00,VWS V12.08,2013-02-07 15:58:00,
2013-02-07 11:03:00,76.0,63.8,30.00,SSE,160,13.0,25.0,66,0.00,,---,0.00,VWS V12.08,2013-02-07 16:03:00,
2013-02-07 11:08:00,75.6,63.9,30.00,South,181,16.0,25.0,67,0.00,,---,0.00,VWS V12.08,2013-02-07 16:08:00,
2013-02-07 11:13:00,75.6,63.9,30.01,South,180,11.0,25.0,67,0.00,,---,0.00,VWS V12.08,2013-02-07 16:13:00,
2013-02-07 11:18:00,75.7,64.0,30.02,SSE,155,5.0,25.0,67,0.00,,---,0.00,VWS V12.08,2013-02-07 16:18:00,
2013-02-07 11:23:00,75.8,64.1,30.01,South,170,8.0,25.0,67,0.00,,---,0.00,VWS V12.08,2013-02-07 16:23:00,
2013-02-07 11:28:00,75.7,63.5,30.00,SSW,209,10.0,25.0,66,0.00,,---,0.00,VWS V12.08,2013-02-07 16:28:00,
2013-02-07 11:33:00,75.8,63.6,30.00,South,178,6.0,25.0,66,0.00,,---,0.00,VWS V12.08,2013-02-07 16:33:00,
2013-02-07 11:38:00,76.4,63.8,30.00,SSE,157,11.0,25.0,65,0.00,,---,0.00,VWS V12.08,2013-02-07 16:38:00,
2013-02-07 11:43:00,77.4,64.3,29.99,SSW,193,10.0,25.0,64,0.00,,---,0.00,VWS V12.08,2013-02-07 16:43:00,
2013-02-07 11:48:00,77.0,63.5,29.99,SSW,200,11.0,25.0,63,0.00,,---,0.00,VWS V12.08,2013-02-07 16:48:00,
2013-02-07 11:53:00,76.7,63.6,29.99,South,173,10.0,25.0,64,0.00,,---,0.00,VWS V12.08,2013-02-07 16:53:00,
2013-02-07 11:58:00,77.0,63.9,29.98,SSW,203,6.0,25.0,64,0.00,,---,0.00,VWS V12.08,2013-02-07 16:58:00,
2013-02-07 12:03:00,77.8,64.2,29.98,South,179,13.0,25.0,63,0.00,,---,0.00,VWS V12.08,2013-02-07 17:03:00,
2013-02-07 12:08:00,78.1,64.0,29.98,South,180,7.0,25.0,62,0.00,,---,0.00,VWS V12.08,2013-02-07 17:08:00,
2013-02-07 12:13:00,78.4,63.8,29.97,South,184,9.0,25.0,61,0.00,,---,0.00,VWS V12.08,2013-02-07 17:13:00,
2013-02-07 12:18:00,78.9,64.8,29.97,SSE,148,10.0,25.0,62,0.00,,---,0.00,VWS V12.08,2013-02-07 17:18:00,
2013-02-07 12:23:00,79.0,63.9,29.97,SSW,209,10.0,25.0,60,0.00,,---,0.00,VWS V12.08,2013-02-07 17:23:00,
2013-02-07 12:28:00,78.5,64.0,29.97,SSE,158,6.0,25.0,61,0.00,,---,0.00,VWS V12.08,2013-02-07 17:28:00,
2013-02-07 12:33:00,78.9,64.3,29.97,SSW,196,12.0,25.0,61,0.00,,---,0.00,VWS V12.08,2013-02-07 17:33:00,
2013-02-07 12:38:00,79.4,64.3,29.97,South,183,10.0,25.0,60,0.00,,---,0.00,VWS V12.08,2013-02-07 17:38:00,
2013-02-07 12:43:00,79.4,63.3,29.97,SSW,207,12.0,25.0,58,0.00,,---,0.00,VWS V12.08,2013-02-07 17:43:00,
2013-02-07 12:48:00,78.8,63.8,29.97,SSE,165,14.0,25.0,60,0.00,,---,0.00,VWS V12.08,2013-02-07 17:48:00,
2013-02-07 12:53:00,78.3,63.8,29.98,SSW,204,7.0,25.0,61,0.00,,---,0.00,VWS V12.08,2013-02-07 17:53:00,
2013-02-07 12:58:00,77.7,64.1,29.98,SW,221,9.0,25.0,63,0.00,,---,0.00,VWS V12.08,2013-02-07 17:58:00,
2013-02-07 13:03:00,78.4,64.8,29.97,SSW,210,11.0,25.0,63,0.00,,---,0.00,VWS V12.08,2013-02-07 18:03:00,
2013-02-07 13:08:00,79.4,64.8,29.95,SW,229,14.0,25.0,61,0.00,,---,0.00,VWS V12.08,2013-02-07 18:08:00,
2013-02-07 13:13:00,79.5,63.9,29.94,South,174,7.0,25.0,59,0.00,,---,0.00,VWS V12.08,2013-02-07 18:13:00,
2013-02-07 13:18:00,79.7,64.1,29.94,SSE,165,11.0,25.0,59,0.00,,---,0.00,VWS V12.08,2013-02-07 18:18:00,
2013-02-07 13:23:00,79.3,63.3,29.93,SSE,153,10.0,25.0,58,0.00,,---,0.00,VWS V12.08,2013-02-07 18:23:00,
2013-02-07 13:28:00,78.4,63.4,29.92,SSW,209,16.0,25.0,60,0.00,,---,0.00,VWS V12.08,2013-02-07 18:28:00,
2013-02-07 13:33:00,78.4,63.8,29.92,South,185,12.0,25.0,61,0.00,,---,0.00,VWS V12.08,2013-02-07 18:33:00,
2013-02-07 13:38:00,78.4,63.8,29.92,South,182,10.0,25.0,61,0.00,,---,0.00,VWS V12.08,2013-02-07 18:38:00,
2013-02-07 13:43:00,78.2,63.7,29.91,South,175,15.0,25.0,61,0.00,,---,0.00,VWS V12.08,2013-02-07 18:43:00,
2013-02-07 13:48:00,78.2,63.7,29.92,SW,227,13.0,25.0,61,0.00,,---,0.00,VWS V12.08,2013-02-07 18:48:00,
2013-02-07 13:53:00,78.4,63.8,29.91,SW,219,10.0,25.0,61,0.00,,---,0.00,VWS V12.08,2013-02-07 18:53:00,
2013-02-07 13:58:00,78.4,63.8,29.91,SSW,193,11.0,25.0,61,0.00,,---,0.00,VWS V12.08,2013-02-07 18:58:00,
2013-02-07 14:03:00,78.1,63.6,29.91,South,186,10.0,25.0,61,0.00,,---,0.00,VWS V12.08,2013-02-07 19:03:00,
2013-02-07 14:08:00,77.9,63.8,29.92,South,180,8.0,25.0,62,0.00,,---,0.00,VWS V12.08,2013-02-07 19:08:00,
2013-02-07 14:13:00,78.1,64.0,29.91,South,174,9.0,25.0,62,0.00,,---,0.00,VWS V12.08,2013-02-07 19:13:00,
2013-02-07 14:18:00,78.3,63.8,29.91,South,190,9.0,25.0,61,0.00,,---,0.00,VWS V12.08,2013-02-07 19:18:00,
2013-02-07 14:23:00,78.4,63.8,29.91,SSW,194,16.0,25.0,61,0.00,,---,0.00,VWS V12.08,2013-02-07 19:23:00,
2013-02-07 14:28:00,78.4,63.8,29.89,South,182,14.0,25.0,61,0.00,,---,0.00,VWS V12.08,2013-02-07 19:28:00,
2013-02-07 14:33:00,78.9,64.3,29.88,South,189,11.0,25.0,61,0.00,,---,0.00,VWS V12.08,2013-02-07 19:33:00,
2013-02-07 14:38:00,80.0,63.9,29.88,SSE,150,14.0,25.0,58,0.00,,---,0.00,VWS V12.08,2013-02-07 19:38:00,
2013-02-07 14:43:00,80.0,63.9,29.88,South,179,13.0,25.0,58,0.00,,---,0.00,VWS V12.08,2013-02-07 19:43:00,
2013-02-07 14:48:00,79.5,63.9,29.88,South,189,11.0,25.0,59,0.00,,---,0.00,VWS V12.08,2013-02-07 19:48:00,
2013-02-07 14:53:00,79.2,63.7,29.89,SSW,204,13.0,25.0,59,0.00,,---,0.00,VWS V12.08,2013-02-07 19:53:00,
2013-02-07 14:58:00,78.9,63.4,29.88,South,188,12.0,25.0,59,0.00,,---,0.00,VWS V12.08,2013-02-07 19:58:00,
2013-02-07 15:03:00,78.7,63.7,29.88,SW,215,11.0,25.0,60,0.00,,---,0.00,VWS V12.08,2013-02-07 20:03:00,
2013-02-07 15:08:00,78.5,63.5,29.88,South,181,10.0,25.0,60,0.00,,---,0.00,VWS V12.08,2013-02-07 20:08:00,
2013-02-07 15:13:00,78.6,63.6,29.88,SW,221,6.0,25.0,60,0.00,,---,0.00,VWS V12.08,2013-02-07 20:13:00,
2013-02-07 15:18:00,78.7,63.7,29.87,SSE,160,14.0,25.0,60,0.00,,---,0.00,VWS V12.08,2013-02-07 20:18:00,
2013-02-07 15:23:00,78.7,63.7,29.87,SSW,193,9.0,25.0,60,0.00,,---,0.00,VWS V12.08,2013-02-07 20:23:00,
2013-02-07 15:28:00,78.6,63.6,29.87,SSW,196,10.0,25.0,60,0.00,,---,0.00,VWS V12.08,2013-02-07 20:28:00,
2013-02-07 15:33:00,78.5,63.5,29.87,South,173,11.0,25.0,60,0.00,,---,0.00,VWS V12.08,2013-02-07 20:33:00,
2013-02-07 15:38:00,78.4,63.4,29.87,SSW,202,12.0,25.0,60,0.00,,---,0.00,VWS V12.08,2013-02-07 20:38:00,
2013-02-07 15:43:00,78.3,63.3,29.87,South,180,8.0,25.0,60,0.00,,---,0.00,VWS V12.08,2013-02-07 20:43:00,
2013-02-07 15:48:00,78.4,63.4,29.87,SSW,192,6.0,25.0,60,0.00,,---,0.00,VWS V12.08,2013-02-07 20:48:00,
2013-02-07 15:53:00,78.8,63.3,29.87,South,177,10.0,25.0,59,0.00,,---,0.00,VWS V12.08,2013-02-07 20:53:00,
2013-02-07 15:58:00,79.1,63.6,29.87,SSW,193,5.0,25.0,59,0.00,,---,0.00,VWS V12.08,2013-02-07 20:58:00,
2013-02-07 16:03:00,79.1,63.6,29.88,SSW,205,7.0,25.0,59,0.00,,---,0.00,VWS V12.08,2013-02-07 21:03:00,
2013-02-07 16:08:00,79.2,63.7,29.87,SSW,200,6.0,25.0,59,0.00,,---,0.00,VWS V12.08,2013-02-07 21:08:00,
2013-02-07 16:13:00,79.3,63.7,29.86,South,175,10.0,25.0,59,0.00,,---,0.00,VWS V12.08,2013-02-07 21:13:00,
2013-02-07 16:18:00,79.4,63.8,29.86,SSW,212,12.0,25.0,59,0.00,,---,0.00,VWS V12.08,2013-02-07 21:18:00,
2013-02-07 16:23:00,79.7,63.6,29.86,South,182,7.0,25.0,58,0.00,,---,0.00,VWS V12.08,2013-02-07 21:23:00,
2013-02-07 16:28:00,80.1,64.0,29.86,SSE,155,9.0,25.0,58,0.00,,---,0.00,VWS V12.08,2013-02-07 21:28:00,
2013-02-07 16:33:00,80.1,63.5,29.86,SSW,194,12.0,25.0,57,0.00,,---,0.00,VWS V12.08,2013-02-07 21:33:00,
2013-02-07 16:38:00,79.9,63.3,29.86,South,191,9.0,25.0,57,0.00,,---,0.00,VWS V12.08,2013-02-07 21:38:00,
2013-02-07 16:43:00,79.5,63.4,29.86,South,169,7.0,25.0,58,0.00,,---,0.00,VWS V12.08,2013-02-07 21:43:00,
2013-02-07 16:48:00,79.4,63.3,29.87,SSW,197,10.0,25.0,58,0.00,,---,0.00,VWS V12.08,2013-02-07 21:48:00,
2013-02-07 16:53:00,79.3,63.3,29.87,SSW,198,6.0,25.0,58,0.00,,---,0.00,VWS V12.08,2013-02-07 21:53:00,
2013-02-07 16:58:00,79.3,63.3,29.86,South,183,7.0,25.0,58,0.00,,---,0.00,VWS V12.08,2013-02-07 21:58:00,
2013-02-07 17:03:00,79.1,63.1,29.86,South,188,7.0,25.0,58,0.00,,---,0.00,VWS V12.08,2013-02-07 22:03:00,
2013-02-07 17:08:00,78.8,63.3,29.86,South,190,8.0,25.0,59,0.00,,---,0.00,VWS V12.08,2013-02-07 22:08:00,
2013-02-07 17:13:00,78.5,63.5,29.85,South,182,4.0,25.0,60,0.00,,---,0.00,VWS V12.08,2013-02-07 22:13:00,
2013-02-07 17:18:00,78.2,63.2,29.85,South,169,9.0,25.0,60,0.00,,---,0.00,VWS V12.08,2013-02-07 22:18:00,
2013-02-07 17:23:00,78.0,63.0,29.85,SSE,165,7.0,25.0,60,0.00,,---,0.00,VWS V12.08,2013-02-07 22:23:00,
2013-02-07 17:28:00,77.9,62.9,29.84,SSE,162,9.0,25.0,60,0.00,,---,0.00,VWS V12.08,2013-02-07 22:28:00,
2013-02-07 17:33:00,77.8,62.8,29.85,South,174,7.0,25.0,60,0.00,,---,0.00,VWS V12.08,2013-02-07 22:33:00,
2013-02-07 17:38:00,77.8,63.3,29.85,South,185,6.0,25.0,61,0.00,,---,0.00,VWS V12.08,2013-02-07 22:38:00,
2013-02-07 17:43:00,77.7,62.7,29.84,SSE,162,7.0,25.0,60,0.00,,---,0.00,VWS V12.08,2013-02-07 22:43:00,
2013-02-07 17:48:00,77.7,62.7,29.85,SSE,167,7.0,25.0,60,0.00,,---,0.00,VWS V12.08,2013-02-07 22:48:00,
2013-02-07 17:53:00,77.6,62.6,29.85,South,188,7.0,25.0,60,0.00,,---,0.00,VWS V12.08,2013-02-07 22:53:00,
2013-02-07 17:58:00,77.5,62.5,29.85,South,173,6.0,25.0,60,0.00,,---,0.00,VWS V12.08,2013-02-07 22:58:00,
2013-02-07 18:03:00,77.3,62.8,29.85,South,176,6.0,25.0,61,0.00,,---,0.00,VWS V12.08,2013-02-07 23:03:00,
2013-02-07 18:08:00,77.1,62.6,29.85,South,182,5.0,25.0,61,0.00,,---,0.00,VWS V12.08,2013-02-07 23:08:00,
2013-02-07 18:13:00,77.0,63.0,29.86,South,183,0.0,25.0,62,0.00,,---,0.00,VWS V12.08,2013-02-07 23:13:00,
2013-02-07 18:18:00,76.8,63.7,29.87,South,189,1.0,25.0,64,0.00,,---,0.00,VWS V12.08,2013-02-07 23:18:00,
2013-02-07 18:23:00,76.3,64.1,29.89,WSW,240,1.0,25.0,66,0.00,,---,0.00,VWS V12.08,2013-02-07 23:23:00,
2013-02-07 18:28:00,75.6,64.3,29.88,WSW,240,0.0,25.0,68,0.00,,---,0.00,VWS V12.08,2013-02-07 23:28:00,
2013-02-07 18:33:00,74.8,64.4,29.88,WSW,239,0.0,25.0,70,0.00,,---,0.00,VWS V12.08,2013-02-07 23:33:00,
2013-02-07 18:38:00,73.7,65.3,29.88,WSW,240,0.0,25.0,75,0.00,,---,0.00,VWS V12.08,2013-02-07 23:38:00,
2013-02-07 18:43:00,72.7,65.4,29.87,WSW,240,0.0,25.0,78,0.00,,---,0.00,VWS V12.08,2013-02-07 23:43:00,
2013-02-07 18:48:00,71.7,65.2,29.87,WSW,239,0.0,25.0,80,0.00,,---,0.00,VWS V12.08,2013-02-07 23:48:00,
2013-02-07 18:53:00,70.9,65.1,29.89,WSW,239,0.0,25.0,82,0.00,,---,0.00,VWS V12.08,2013-02-07 23:53:00,
2013-02-07 18:58:00,70.4,65.0,29.88,WSW,239,0.0,25.0,83,0.00,,---,0.00,VWS V12.08,2013-02-07 23:58:00,
2013-02-07 19:03:00,70.0,64.6,29.89,SW,232,4.0,25.0,83,0.00,,---,0.00,VWS V12.08,2013-02-08 00:03:00,
2013-02-07 19:08:00,70.1,64.7,29.88,SW,232,2.0,25.0,83,0.00,,---,0.00,VWS V12.08,2013-02-08 00:08:00,
2013-02-07 19:13:00,70.1,64.4,29.87,SW,231,4.0,25.0,82,0.00,,---,0.00,VWS V12.08,2013-02-08 00:13:00,
2013-02-07 19:18:00,70.1,64.4,29.86,SW,230,3.0,25.0,82,0.00,,---,0.00,VWS V12.08,2013-02-08 00:18:00,
2013-02-07 19:23:00,70.0,64.3,29.87,SW,230,0.0,25.0,82,0.00,,---,0.00,VWS V12.08,2013-02-08 00:23:00,
2013-02-07 19:28:00,69.9,64.2,29.87,SW,230,0.0,25.0,82,0.00,,---,0.00,VWS V12.08,2013-02-08 00:28:00,
2013-02-07 19:33:00,69.5,63.8,29.87,SW,230,0.0,25.0,82,0.00,,---,0.00,VWS V12.08,2013-02-08 00:33:00,
2013-02-07 19:38:00,69.4,63.7,29.87,SW,230,1.0,25.0,82,0.00,,---,0.00,VWS V12.08,2013-02-08 00:38:00,
2013-02-07 19:43:00,69.2,63.1,29.87,SW,230,0.0,25.0,81,0.00,,---,0.00,VWS V12.08,2013-02-08 00:43:00,
2013-02-07 19:48:00,69.4,63.0,29.86,SW,223,3.0,25.0,80,0.00,,---,0.00,VWS V12.08,2013-02-08 00:48:00,
2013-02-07 19:53:00,69.9,62.7,29.86,SW,216,4.0,25.0,78,0.00,,---,0.00,VWS V12.08,2013-02-08 00:53:00,
2013-02-07 19:58:00,70.5,63.0,29.86,SW,215,5.0,25.0,77,0.00,,---,0.00,VWS V12.08,2013-02-08 00:58:00,
2013-02-07 20:03:00,70.8,62.9,29.87,SW,214,4.0,25.0,76,0.00,,---,0.00,VWS V12.08,2013-02-08 01:03:00,
2013-02-07 20:08:00,71.2,62.9,29.87,SW,214,9.0,25.0,75,0.00,,---,0.00,VWS V12.08,2013-02-08 01:08:00,
2013-02-07 20:13:00,71.6,63.3,29.87,SSW,210,5.0,25.0,75,0.00,,---,0.00,VWS V12.08,2013-02-08 01:13:00,
2013-02-07 20:18:00,71.9,63.2,29.86,SSW,201,10.0,25.0,74,0.00,,---,0.00,VWS V12.08,2013-02-08 01:18:00,
2013-02-07 20:23:00,72.2,63.1,29.86,South,188,4.0,25.0,73,0.00,,---,0.00,VWS V12.08,2013-02-08 01:23:00,
2013-02-07 20:28:00,72.1,63.0,29.86,SSW,207,7.0,25.0,73,0.00,,---,0.00,VWS V12.08,2013-02-08 01:28:00,
2013-02-07 20:33:00,72.1,63.4,29.85,SW,215,11.0,25.0,74,0.00,,---,0.00,VWS V12.08,2013-02-08 01:33:00,
2013-02-07 20:38:00,72.1,63.4,29.85,SSW,200,11.0,25.0,74,0.00,,---,0.00,VWS V12.08,2013-02-08 01:38:00,
2013-02-07 20:43:00,72.0,63.7,29.85,SSW,209,8.0,25.0,75,0.00,,---,0.00,VWS V12.08,2013-02-08 01:43:00,
2013-02-07 20:48:00,71.8,63.5,29.86,SSW,211,6.0,25.0,75,0.00,,---,0.00,VWS V12.08,2013-02-08 01:48:00,
2013-02-07 20:53:00,71.5,63.2,29.86,SSW,213,4.0,25.0,75,0.00,,---,0.00,VWS V12.08,2013-02-08 01:53:00,
2013-02-07 20:58:00,71.2,63.3,29.86,SSW,213,3.0,25.0,76,0.00,,---,0.00,VWS V12.08,2013-02-08 01:58:00,
2013-02-07 21:03:00,71.0,63.1,29.86,SW,217,3.0,25.0,76,0.00,,---,0.00,VWS V12.08,2013-02-08 02:03:00,
2013-02-07 21:08:00,71.0,63.4,29.86,SSW,212,4.0,25.0,77,0.00,,---,0.00,VWS V12.08,2013-02-08 02:08:00,
2013-02-07 21:13:00,70.9,63.3,29.86,SW,224,5.0,25.0,77,0.00,,---,0.00,VWS V12.08,2013-02-08 02:13:00,
2013-02-07 21:18:00,70.9,63.7,29.86,SW,223,11.0,25.0,78,0.00,,---,0.00,VWS V12.08,2013-02-08 02:18:00,
2013-02-07 21:23:00,71.0,63.8,29.86,SW,219,9.0,25.0,78,0.00,,---,0.00,VWS V12.08,2013-02-08 02:23:00,
2013-02-07 21:28:00,71.1,64.3,29.86,SW,224,9.0,25.0,79,0.00,,---,0.00,VWS V12.08,2013-02-08 02:28:00,
2013-02-07 21:33:00,71.1,64.3,29.86,SW,215,6.0,25.0,79,0.00,,---,0.00,VWS V12.08,2013-02-08 02:33:00,
2013-02-07 21:38:00,71.0,64.2,29.86,SW,217,9.0,25.0,79,0.00,,---,0.00,VWS V12.08,2013-02-08 02:38:00,
2013-02-07 21:43:00,71.0,64.2,29.86,SW,223,8.0,25.0,79,0.00,,---,0.00,VWS V12.08,2013-02-08 02:43:00,
2013-02-07 21:48:00,71.0,64.5,29.86,SW,227,10.0,25.0,80,0.00,,---,0.00,VWS V12.08,2013-02-08 02:48:00,
2013-02-07 21:53:00,70.9,64.4,29.86,SW,235,5.0,25.0,80,0.00,,---,0.00,VWS V12.08,2013-02-08 02:53:00,
2013-02-07 21:58:00,70.8,64.3,29.86,SW,231,7.0,25.0,80,0.00,,---,0.00,VWS V12.08,2013-02-08 02:58:00,
2013-02-07 22:03:00,70.7,64.6,29.86,SW,224,5.0,25.0,81,0.00,,---,0.00,VWS V12.08,2013-02-08 03:03:00,
2013-02-07 22:08:00,70.7,64.6,29.86,SW,227,5.0,25.0,81,0.00,,---,0.00,VWS V12.08,2013-02-08 03:08:00,
2013-02-07 22:13:00,70.5,64.4,29.86,SW,227,7.0,25.0,81,0.00,,---,0.00,VWS V12.08,2013-02-08 03:13:00,
2013-02-07 22:18:00,70.5,64.8,29.86,SW,225,7.0,25.0,82,0.00,,---,0.00,VWS V12.08,2013-02-08 03:18:00,
2013-02-07 22:23:00,70.4,64.7,29.86,SW,224,4.0,25.0,82,0.00,,---,0.00,VWS V12.08,2013-02-08 03:23:00,
2013-02-07 22:28:00,70.1,64.4,29.85,SW,231,10.0,25.0,82,0.00,,---,0.00,VWS V12.08,2013-02-08 03:28:00,
2013-02-07 22:33:00,69.9,64.2,29.86,SW,232,4.0,25.0,82,0.00,,---,0.00,VWS V12.08,2013-02-08 03:33:00,
2013-02-07 22:38:00,69.8,64.4,29.86,SW,227,4.0,25.0,83,0.00,,---,0.00,VWS V12.08,2013-02-08 03:38:00,
2013-02-07 22:43:00,69.6,64.2,29.86,SW,236,4.0,25.0,83,0.00,,---,0.00,VWS V12.08,2013-02-08 03:43:00,
2013-02-07 22:48:00,69.4,64.4,29.86,SW,234,5.0,25.0,84,0.00,,---,0.00,VWS V12.08,2013-02-08 03:48:00,
2013-02-07 22:53:00,69.3,64.3,29.86,SW,227,4.0,25.0,84,0.00,,---,0.00,VWS V12.08,2013-02-08 03:53:00,
2013-02-07 22:58:00,69.2,64.5,29.86,SW,231,5.0,25.0,85,0.00,,---,0.00,VWS V12.08,2013-02-08 03:58:00,
2013-02-07 23:03:00,69.1,64.1,29.86,SW,232,3.0,25.0,84,0.00,,---,0.00,VWS V12.08,2013-02-08 04:03:00,
2013-02-07 23:08:00,68.9,64.2,29.86,WSW,238,4.0,25.0,85,0.00,,---,0.00,VWS V12.08,2013-02-08 04:08:00,
2013-02-07 23:13:00,69.0,64.3,29.86,WSW,242,5.0,25.0,85,0.00,,---,0.00,VWS V12.08,2013-02-08 04:13:00,
2013-02-07 23:18:00,69.0,64.3,29.86,WSW,241,6.0,25.0,85,0.00,,---,0.00,VWS V12.08,2013-02-08 04:18:00,
2013-02-07 23:23:00,69.0,64.3,29.86,WSW,241,6.0,25.0,85,0.00,,---,0.00,VWS V12.08,2013-02-08 04:23:00,
2013-02-07 23:28:00,68.9,64.2,29.86,WSW,242,6.0,25.0,85,0.00,,---,0.00,VWS V12.08,2013-02-08 04:28:00,
2013-02-07 23:33:00,68.8,64.4,29.87,WSW,248,3.0,25.0,86,0.00,,---,0.00,VWS V12.08,2013-02-08 04:33:00,
2013-02-07 23:38:00,68.7,64.3,29.86,WSW,246,5.0,25.0,86,0.00,,---,0.00,VWS V12.08,2013-02-08 04:38:00,
2013-02-07 23:43:00,68.6,64.2,29.86,WSW,253,6.0,25.0,86,0.00,,---,0.00,VWS V12.08,2013-02-08 04:43:00,
2013-02-07 23:48:00,68.5,64.2,29.86,WSW,245,6.0,25.0,86,0.00,,---,0.00,VWS V12.08,2013-02-08 04:48:00,
2013-02-07 23:53:00,68.5,64.2,29.86,WSW,238,3.0,25.0,86,0.00,,---,0.00,VWS V12.08,2013-02-08 04:53:00,
2013-02-07 23:58:00,68.3,64.3,29.86,WSW,244,5.0,25.0,87,0.00,,---,0.00,VWS V12.08,2013-02-08 04:58:00,